Flag for Australia Weather past 2 weeks in Perth, Western Australia, Australia

Now
61 °F

Clear.


Feels Like: 61 °F
Forecast: 56 / 78 °F
Wind: 7 mph from East

Location: Belmont Perth Airport

Current Time: Sep 17, 2014 at 2:10:38 AM

Latest Report: Sep 17, 2014 at 1:30 AM


Visibility: 10 mi

Pressure: 29.98 "Hg

Humidity: 59%

Dew point: 46 °F

Location of PerthLocation

Historic Weather in Perth — Graph

°F

Perth temperature yesterday

Maximum temperature yesterday: 77 °F (at 3:00 PM)
Minimum temperature yesterday: 54 °F (at 5:30 AM)
Average temperature yesterday: 64 °F

Past Weeks' High & Low Weather Summary

 TemperatureHumidityPressure
High77 °F (Sep 5, 2:30 PM)100% (Sep 3, 12:30 AM)30.24 "Hg (Sep 3, 12:30 AM)
Low39 °F (Sep 14, 5:30 AM)25% (Sep 14, 1:00 PM)29.56 "Hg (Sep 7, 11:00 PM)
Average61 °F69%30.02 "Hg
* Reported Midnight between Sep 1 and Sep 2 — Midnight between Sep 16 and Sep 17, Perth, Weather by CustomWeather, © 2014

Note: Actual official high and low records may vary slightly from our data, if they occured in-between our weather recording intervals... More about our weather records

Advertising

Perth weather history for previous 24 hours

 ConditionsComfort  
Time TempWeatherWind HumidityBarometerVisibility
12:00 AM
Sep 17
64 °FClear.16 mph49%29.98 "Hg10 mi
11:30 PM
Sep 16
64 °FClear.17 mph49%29.98 "Hg10 mi
11:00 PM64 °FClear.16 mph52%29.98 "Hg10 mi
10:30 PM64 °FClear.16 mph52%30.01 "Hg10 mi
10:00 PM64 °FClear.15 mph52%30.01 "Hg10 mi
9:30 PM64 °FClear.7 mph56%30.01 "Hg10 mi
9:00 PM64 °FClear.8 mph56%30.01 "Hg10 mi
8:30 PM63 °FClear.7 mph64%30.01 "Hg10 mi
8:00 PM63 °FClear.7 mph64%30.01 "Hg10 mi
7:30 PM63 °FClear.8 mph64%30.01 "Hg10 mi
7:00 PM66 °FClear.8 mph56%30.01 "Hg10 mi
6:30 PM68 °FClear.8 mph53%30.01 "Hg10 mi
6:00 PM70 °FPassing clouds.8 mph50%29.98 "HgN/A
5:30 PM73 °FClear.8 mph41%29.98 "Hg10 mi
5:00 PM75 °FSunny.10 mph36%29.98 "Hg10 mi
4:30 PM75 °FSunny.9 mph34%29.98 "Hg10 mi
4:00 PM75 °FSunny.10 mph34%29.98 "Hg10 mi
3:30 PM75 °FSunny.10 mph36%29.98 "Hg10 mi
3:00 PM77 °FSunny.10 mph36%29.98 "Hg10 mi
2:30 PM75 °FSunny.13 mph36%29.98 "Hg10 mi
2:00 PM75 °FSunny.13 mph39%30.01 "Hg10 mi
1:30 PM73 °FSunny.15 mph38%30.01 "Hg10 mi
1:00 PM73 °FSunny.9 mph38%30.04 "Hg10 mi
12:30 PM73 °FSunny.13 mph38%30.04 "Hg10 mi
12:00 PM72 °FSunny.12 mph38%30.07 "Hg10 mi
11:30 AM70 °FSunny.15 mph43%30.07 "Hg10 mi
11:00 AM70 °FSunny.13 mph43%30.09 "Hg10 mi
10:30 AM68 °FSunny.13 mph46%30.09 "Hg10 mi
10:00 AM66 °FSunny.13 mph49%30.09 "Hg10 mi
9:00 AM63 °FSunny.7 mph56%30.12 "Hg10 mi
8:30 AM59 °FSunny.7 mph63%30.12 "Hg10 mi
8:00 AM57 °FSunny.16 mph67%30.12 "Hg10 mi
7:30 AM55 °FSunny.21 mph67%30.12 "Hg10 mi
7:00 AM54 °FSunny.24 mph72%30.09 "Hg10 mi
6:30 AM54 °FSunny.22 mph77%30.09 "Hg10 mi
6:03 AM54 °FPassing clouds.23 mph77%30.09 "HgN/A
5:30 AM54 °FSunny.18 mph77%30.09 "Hg10 mi
5:00 AM55 °FClear.16 mph72%30.09 "Hg10 mi
4:30 AM55 °FClear.22 mph72%30.09 "Hg10 mi
4:00 AM55 °FClear.23 mph72%30.09 "Hg10 mi
3:30 AM55 °FClear.21 mph72%30.07 "Hg10 mi
3:00 AM55 °FClear.22 mph72%30.07 "Hg10 mi
2:30 AM57 °FClear.22 mph67%30.07 "Hg10 mi
2:00 AM57 °FClear.21 mph63%30.07 "Hg10 mi
Weather by CustomWeather, © 2014

See weather overviewHow to use our weather pages